User: anonymous   Login
Location: Charleston
(38.3500°N, 81.6330°W)
Time: 13:19:08
(UTC-04:00)
Language:

Cosmos 2228 - Orbit

View from above orbital plane
View from above orbital plane
View from above satellite
View from above satellite

Ground track
Ground track

The orbit data is extracted from the following two-line orbital elements,

1 22286U 92094A   16269.09584178  .00000377  00000-0  38793-4 0  9991
2 22286  82.5187 264.0007 0019015 282.5840  77.3250 14.87521963283088
Epoch (UTC): 25 September 2016 02:18:00
Eccentricity: 0.0019015
inclination: 82.5187°
perigee height: 592 km
apogee height: 619 km
right ascension of ascending node: 264.0007°
argument of perigee: 282.5840°
revolutions per day: 14.87521963
mean anomaly at epoch: 77.3250°
orbit number at epoch: 28308

The dashed part of the orbit path shows where the satellite is in the earth's shadow,  

DLR